Wind_Speed
30 31 31 31 31 31 31 31 32 32 31 32 32 32 32 32 32 32 32 32 32 33 34 35 35 36 36 36 36 37 38 39 40 40 41 42 41 42 42 42 42 42 41 41 40 40 40 40 39 38 37 37 37 37 37 37 37 37 37 37 37 37 37 37 38 38 38 38 37
29 30 31 31 31 30 30 31 31 32 32 32 33 33 33 33 33 33 33 33 34 34 35 35 36 36 36 36 36 36 37 38 39 40 41 41 42 42 42 42 42 42 42 42 40 39 39 39 39 38 37 36 36 36 36 37 37 36 37 38 37 36 36 36 38 38 38 38 38
27 28 29 30 30 30 30 31 32 32 33 33 33 33 33 33 33 33 34 34 35 35 35 35 36 36 36 36 36 36 37 38 39 39 40 41 41 41 41 41 42 42 42 42 41 40 39 39 38 37 36 36 36 36 36 36 36 36 37 38 37 36 34 35 36 37 36 36 37
23 24 25 27 28 29 30 31 32 32 33 33 33 33 33 33 34 34 35 35 35 35 35 35 35 35 36 36 36 36 37 37 38 38 39 40 41 41 41 41 41 42 42 42 42 42 41 39 38 37 37 37 37 38 37 37 36 36 36 37 37 36 35 35 35 34 34 34 35
17 19 20 21 23 25 26 28 30 31 32 32 32 32 33 33 34 34 34 34 34 35 35 35 35 35 35 35 35 36 36 36 37 37 38 39 40 40 41 41 41 42 42 42 42 42 41 40 38 37 37 38 38 38 39 38 36 36 36 36 36 36 35 35 34 34 34 33 34
15 15 16 18 19 20 22 24 26 27 29 30 31 31 32 33 33 33 34 34 35 36 36 36 35 35 35 35 35 35 36 36 36 37 38 39 39 40 40 41 41 42 42 42 42 42 42 41 38 37 37 38 38 39 39 38 36 36 35 35 35 35 35 35 34 33 33 33 34
15 15 16 16 17 19 20 21 23 24 26 27 29 30 32 33 33 34 35 35 36 36 36 36 35 35 35 35 35 35 35 36 36 37 38 38 39 39 40 40 41 41 42 42 42 41 41 41 38 37 37 37 37 38 38 38 37 36 35 35 35 35 34 35 35 34 33 34 35
16 16 17 17 18 18 19 20 21 23 24 26 27 29 31 32 33 34 35 36 36 36 36 36 36 36 36 35 35 35 36 36 36 37 37 38 38 39 39 40 40 41 41 42 41 41 41 40 39 38 38 37 37 36 36 37 37 37 36 36 35 35 35 35 35 35 34 34 35
17 18 18 18 19 19 20 20 21 22 23 25 26 28 29 31 32 33 34 35 36 36 36 36 37 37 36 36 36 36 36 36 36 37 37 38 38 39 39 39 39 40 41 41 41 41 40 39 39 39 39 38 36 35 36 36 37 38 38 37 36 35 35 35 36 36 35 35 36
18 18 19 19 19 20 20 21 21 22 23 25 26 27 28 30 31 32 33 34 34 35 35 36 36 37 36 36 37 37 37 37 37 37 38 38 38 39 39 40 40 40 40 40 40 40 40 39 39 40 40 40 39 38 37 36 37 38 39 37 37 36 36 35 36 36 36 36 36
19 19 20 20 20 21 21 22 22 23 24 25 27 28 28 29 30 31 32 33 33 34 35 36 36 36 36 37 37 37 37 37 37 37 37 38 39 39 40 40 41 41 41 40 40 39 39 39 39 40 40 40 40 39 37 37 37 38 39 38 38 37 37 37 36 36 36 36 36
19 20 20 21 21 22 22 23 24 24 25 26 27 28 29 29 30 31 32 33 33 35 36 36 36 36 36 36 37 37 37 36 36 37 37 38 39 40 40 41 41 41 41 41 40 39 38 39 40 40 41 40 39 38 38 37 37 37 38 39 38 38 38 38 37 36 36 35 36
20 21 21 22 22 23 23 24 25 25 26 27 27 28 29 29 30 31 32 32 33 34 35 35 35 35 35 36 37 37 37 36 36 37 37 38 39 39 40 41 41 41 41 41 40 39 38 39 41 42 42 41 40 39 38 38 38 38 38 38 38 38 38 39 38 37 36 35 36
21 22 22 23 23 24 25 26 26 27 27 28 28 29 29 30 30 31 31 32 33 34 35 35 35 34 35 35 36 36 37 37 37 37 37 38 38 39 39 40 41 41 41 41 41 40 40 40 42 42 42 41 41 40 40 39 39 39 39 39 39 39 40 39 39 38 37 36 36
22 23 23 24 25 26 26 27 28 28 29 29 29 29 30 30 31 31 31 32 33 34 34 35 35 35 35 35 35 36 36 36 36 37 37 38 38 38 39 39 40 40 41 41 41 41 42 42 43 43 43 42 42 42 41 40 40 40 40 40 40 40 40 40 39 38 38 38 37
24 24 25 25 26 27 28 29 29 30 30 31 31 31 31 31 31 31 31 32 33 33 34 34 35 35 35 35 35 35 35 35 36 36 37 37 38 38 39 39 40 40 41 41 41 41 42 43 43 43 43 43 43 42 42 41 41 41 41 41 41 41 41 40 40 40 40 39 38
25 25 26 26 27 28 29 30 31 31 32 32 32 32 32 32 32 32 32 32 32 33 33 34 35 35 35 35 35 34 34 34 35 35 36 37 38 39 39 40 40 41 41 41 41 42 42 43 43 43 43 43 42 42 42 42 42 42 42 42 42 42 42 41 41 41 41 41 40
26 26 27 27 28 29 30 32 32 33 33 33 33 33 33 33 33 33 33 33 32 33 33 34 35 35 35 36 35 34 34 34 34 35 36 37 38 39 39 40 40 40 40 41 41 42 43 43 43 42 42 42 42 42 42 42 42 42 42 42 42 42 42 42 42 41 41 41 41
27 27 28 28 29 30 32 33 34 34 34 34 34 34 34 34 34 34 34 33 33 33 33 34 35 35 35 36 36 35 34 34 35 35 36 37 38 38 39 40 40 40 40 40 41 42 43 43 42 42 41 41 41 41 41 41 41 41 42 42 42 43 43 42 42 42 41 41 42
28 28 29 29 30 32 33 35 35 35 35 35 34 34 35 34 34 34 34 34 33 33 33 33 34 34 35 35 35 35 35 35 35 36 36 37 37 38 38 39 39 39 40 40 41 41 42 42 41 41 41 40 40 40 40 40 40 40 41 41 42 42 42 42 42 42 42 42 42
29 29 30 31 32 33 35 36 36 36 36 35 35 35 35 35 34 34 34 34 33 33 33 33 33 34 34 34 35 35 36 35 35 36 36 37 37 38 38 38 38 39 39 39 40 41 41 41 40 40 40 39 39 40 40 39 39 39 40 40 40 41 42 42 42 42 42 42 42
30 30 31 32 33 35 36 37 37 36 36 36 35 35 35 35 34 34 34 34 33 33 33 33 33 33 33 33 34 35 35 35 35 35 36 36 37 37 38 38 37 38 38 38 39 40 40 40 40 39 39 39 39 39 40 39 39 39 39 40 40 40 41 41 41 41 41 42 42
30 31 32 34 35 37 38 38 38 37 37 37 36 35 35 35 34 34 34 34 33 33 33 33 33 33 33 33 33 34 35 35 35 36 36 36 36 37 37 37 36 37 37 38 39 39 39 39 39 38 38 38 39 39 39 38 38 38 38 39 39 39 39 39 39 40 40 41 41
31 32 33 35 37 38 39 39 39 38 37 36 36 35 35 34 35 34 34 34 34 34 34 33 33 33 33 33 33 33 34 35 35 36 36 36 36 36 37 37 37 37 37 38 38 38 37 37 37 37 37 38 38 38 38 38 38 38 38 37 38 37 37 38 38 39 39 40 40
31 33 35 37 39 40 40 39 38 38 37 36 36 35 35 35 34 34 34 34 34 34 34 34 34 34 34 33 33 33 33 34 35 35 36 37 37 37 37 37 37 37 37 38 38 37 35 34 34 34 35 35 36 37 37 37 37 37 37 36 36 35 36 36 37 38 39 39 39
33 35 37 39 40 40 39 38 38 37 37 36 36 35 35 34 34 34 34 34 35 35 35 34 34 34 33 33 33 33 33 33 34 35 35 36 37 37 37 37 37 37 37 37 37 35 34 33 32 32 32 33 34 34 34 35 36 36 36 36 35 34 34 34 35 36 37 38 38
35 37 39 40 40 39 38 38 37 37 37 36 35 35 35 34 34 34 34 35 35 35 35 34 34 34 33 33 32 32 33 33 33 34 35 36 36 37 37 37 36 37 37 37 36 34 33 32 32 32 31 31 32 32 32 33 34 35 35 35 35 35 35 35 34 35 35 35 36
38 39 40 39 39 38 37 37 37 36 36 36 35 35 34 34 34 34 34 35 35 35 35 34 34 33 32 31 31 32 32 33 33 34 34 35 35 36 36 36 36 36 37 36 35 34 33 33 33 33 32 32 32 32 32 32 33 33 33 33 34 34 35 35 34 34 33 33 34
40 40 39 38 38 37 37 36 36 36 36 36 35 35 34 34 34 34 34 34 35 34 34 34 33 32 31 31 31 32 32 33 33 33 33 34 34 35 35 36 36 37 36 35 34 33 33 33 33 33 33 33 33 31 31 31 32 32 32 32 33 33 34 34 33 33 32 32 33
40 39 38 37 37 36 36 36 36 36 36 35 35 34 34 34 34 34 34 34 34 34 33 33 32 32 31 31 31 32 32 32 33 32 33 33 34 34 35 36 36 37 36 35 34 33 32 32 32 33 33 34 34 33 32 31 31 31 31 31 32 33 33 33 33 33 32 32 32
38 38 37 36 36 36 36 36 36 36 35 35 34 34 34 34 34 34 34 34 34 34 34 33 32 32 32 32 32 31 32 32 32 32 32 33 33 34 35 36 36 37 36 35 34 33 32 32 32 32 33 33 34 34 33 31 31 31 31 31 32 32 33 32 33 33 33 32 32
37 36 36 36 36 36 36 36 36 36 35 35 34 34 34 34 34 34 34 34 34 33 33 33 32 32 32 32 32 31 31 32 32 32 33 33 33 34 35 35 36 36 36 35 34 33 32 32 32 32 32 33 33 34 35 33 32 31 32 33 33 34 34 33 33 33 33 33 32
36 36 36 35 36 36 37 37 36 35 34 34 33 33 33 34 34 34 34 34 33 33 32 32 31 31 32 31 31 31 31 31 32 32 33 33 34 34 34 35 35 35 35 34 33 32 32 31 32 32 32 33 33 34 34 33 32 31 31 32 34 35 35 35 34 33 33 33 32
36 36 36 36 36 37 37 36 35 34 33 32 33 33 33 33 33 34 34 34 33 32 32 31 31 31 31 31 31 31 31 31 31 32 32 33 33 34 34 34 34 34 33 32 32 31 31 31 31 31 32 32 32 33 33 33 32 31 31 31 33 34 35 36 35 35 34 34 33
36 35 35 36 36 36 36 35 34 33 32 32 32 33 33 33 33 33 33 34 33 32 32 32 31 31 31 31 31 31 31 32 32 32 32 33 33 33 33 34 35 35 34 32 31 31 30 30 30 31 31 31 31 32 32 32 32 32 31 31 32 33 35 36 36 35 35 35 34
35 35 35 36 36 36 36 35 34 33 32 32 33 34 34 34 33 33 33 33 32 32 31 32 32 31 31 31 31 31 31 31 31 32 32 32 32 32 33 34 35 36 35 33 32 31 31 30 30 30 30 30 30 30 30 30 30 31 31 32 32 33 34 35 36 36 35 34 35
35 35 36 36 36 36 35 34 33 32 33 34 34 34 34 34 34 33 33 31 31 31 31 31 30 30 30 30 30 30 31 31 31 31 31 31 31 31 32 34 35 36 35 34 33 32 31 30 30 30 29 29 29 29 29 29 29 29 30 30 31 32 32 33 34 34 35 35 35
35 35 35 35 35 35 34 33 33 33 34 35 35 35 35 34 33 32 32 30 29 29 30 30 30 30 30 30 30 30 31 30 30 30 31 31 31 31 32 33 34 35 35 34 33 32 31 31 30 30 29 29 29 28 27 27 27 28 28 28 28 29 30 30 31 32 34 36 35
35 35 35 34 34 34 33 33 34 34 35 35 36 35 35 34 32 32 31 30 29 29 29 29 30 30 30 30 29 29 30 30 30 29 30 30 31 31 32 32 33 34 35 34 32 31 31 30 30 30 29 29 29 28 27 26 26 26 27 27 27 27 27 28 29 29 31 34 34
35 35 34 33 33 33 34 34 35 35 35 34 35 35 34 33 32 31 31 29 29 29 29 29 30 30 29 29 28 28 29 29 29 29 29 30 31 31 31 31 32 33 34 33 32 31 30 30 30 29 29 29 29 28 27 26 26 26 25 26 25 24 24 25 26 27 29 31 32
35 34 33 33 33 34 34 35 35 35 34 34 34 34 33 32 31 31 30 29 29 29 29 29 29 29 29 28 27 27 28 29 29 30 30 30 30 30 30 30 30 32 32 32 31 31 30 30 29 29 29 28 29 28 27 26 25 25 25 24 24 24 23 24 24 25 27 28 29
Wind_Direction
258 258 258 258 258 258 258 258 259 259 259 259 259 259 259 259 259 259 260 259 258 258 259 259 259 259 259 258 256 254 253 251 249 246 244 243 242 241 240 239 238 237 237 236 235 234 233 233 232 231 231 232 232 233 233 232 231 230 230 230 230 230 231 230 231 231 231 230 230
263 263 262 261 261 260 261 261 262 262 262 261 262 262 262 261 261 261 262 261 261 260 261 261 261 261 260 259 258 257 255 253 251 249 246 245 244 243 241 240 239 238 237 237 235 234 233 232 231 231 231 232 232 233 233 233 232 231 230 230 230 230 231 231 231 231 231 231 231
270 269 268 266 264 263 262 263 264 265 265 265 265 265 264 264 263 263 263 264 264 263 263 263 263 262 262 261 260 258 256 255 253 251 248 246 245 243 242 241 240 239 238 237 236 235 233 232 231 230 231 232 232 233 233 233 232 231 231 231 231 230 231 231 232 232 231 231 231
281 279 276 274 271 269 268 267 268 269 269 269 269 268 267 266 266 265 266 266 266 265 264 263 264 263 263 262 261 259 258 256 254 252 250 248 246 244 242 241 240 239 238 237 236 235 234 233 231 231 231 232 233 233 233 233 232 231 231 231 231 230 230 231 232 231 231 230 230
297 294 291 288 285 282 280 278 276 275 275 274 273 272 271 270 269 268 268 267 267 266 266 265 265 264 264 263 261 260 259 257 255 253 251 249 247 246 244 242 240 239 239 238 237 236 235 233 232 232 232 233 234 234 234 233 232 231 231 231 231 230 230 231 231 231 230 230 229
307 304 302 299 297 294 292 289 286 284 283 281 278 275 274 273 271 270 269 268 269 270 269 269 267 266 265 263 261 260 259 257 255 253 251 250 248 247 245 242 241 240 239 238 237 236 235 233 232 232 234 234 235 235 235 234 232 231 231 231 231 230 230 230 230 230 229 229 228
308 306 305 303 302 299 297 295 293 292 290 287 283 280 278 277 275 274 272 272 272 272 272 270 268 267 265 263 262 260 259 257 255 254 252 250 249 247 245 244 242 241 239 238 237 236 235 233 232 233 234 235 236 236 235 234 232 231 230 230 231 230 230 229 229 229 228 227 227
308 308 308 307 305 303 301 300 298 296 293 290 287 285 283 282 280 279 277 276 274 273 273 271 270 268 266 265 262 261 259 257 255 254 252 251 250 248 247 245 243 241 240 239 237 236 235 233 233 233 234 235 236 236 235 234 232 231 230 230 231 231 230 229 229 228 227 227 226
308 309 310 309 309 308 306 305 302 299 296 293 291 289 288 286 284 283 280 278 276 275 274 272 271 269 268 266 263 261 259 257 255 254 253 251 250 249 247 246 244 242 241 239 237 236 235 233 233 233 234 235 235 235 235 234 232 231 231 231 231 231 231 230 229 228 227 227 226
309 311 312 312 312 312 311 309 307 304 301 298 296 295 294 292 289 286 284 281 280 278 275 273 272 270 268 266 264 262 260 258 256 254 253 252 251 249 248 246 244 243 241 239 237 236 234 233 233 234 235 235 235 235 235 234 232 231 231 231 231 231 231 230 229 228 227 226 226
312 314 314 314 315 315 314 312 310 308 306 303 302 301 300 297 295 292 290 287 283 280 278 276 273 271 268 266 264 263 261 258 256 254 253 252 251 250 249 248 246 244 242 240 238 236 234 233 233 234 235 235 235 235 235 234 233 232 231 232 231 231 231 230 229 228 227 226 226
315 316 317 317 318 317 316 314 313 313 311 309 308 306 304 302 300 298 295 291 287 284 282 280 276 272 269 267 265 263 261 259 257 254 253 252 252 251 250 249 248 246 244 242 239 236 234 233 234 234 235 235 235 235 234 234 233 232 232 232 231 231 231 230 229 228 227 226 226
317 318 319 320 320 319 317 316 316 315 314 313 311 310 308 306 305 302 298 294 290 287 285 283 279 275 271 268 266 263 261 259 257 255 253 252 252 251 250 249 248 247 245 243 240 237 235 234 235 235 235 235 235 235 234 234 233 232 232 231 231 231 231 231 230 228 227 226 226
318 318 319 320 320 319 318 317 316 315 314 313 312 311 310 308 307 305 301 297 293 290 288 285 282 278 274 270 267 265 262 260 258 256 254 253 252 251 250 249 248 247 246 244 241 238 236 236 236 236 236 235 235 235 234 234 233 232 232 231 231 231 231 231 230 228 227 226 225
317 318 319 319 319 318 317 316 315 314 313 312 312 311 310 309 308 306 303 299 296 293 290 287 284 281 277 274 270 267 264 261 259 257 255 253 252 250 249 249 248 247 246 244 242 240 238 237 237 237 237 236 236 235 235 234 233 233 233 232 232 232 232 231 230 228 227 226 225
314 316 317 317 317 317 316 315 314 312 311 310 311 311 310 308 308 307 304 301 298 296 292 289 286 284 281 277 273 269 266 263 260 257 255 254 252 251 250 249 248 247 246 245 243 242 240 240 239 238 238 237 237 236 235 234 234 233 233 233 233 233 233 232 231 229 227 226 225
312 313 315 315 315 315 315 314 313 311 310 310 310 310 309 309 308 307 305 303 300 297 295 292 290 287 284 280 277 272 268 264 260 258 256 254 253 252 251 249 249 248 247 245 244 243 242 241 240 239 239 238 238 237 236 235 235 234 234 234 234 234 234 233 231 230 228 227 226
309 311 312 313 313 314 313 313 312 311 310 309 309 309 309 309 308 307 306 305 302 299 297 295 293 290 286 283 279 275 270 265 262 259 257 256 255 254 253 251 250 249 248 246 245 244 244 243 242 240 239 239 238 238 238 237 236 235 235 235 235 235 234 234 232 231 230 228 228
307 308 309 311 312 312 312 312 311 310 309 308 308 308 308 309 308 308 307 306 305 303 300 298 296 293 289 285 282 278 273 268 264 262 260 258 257 256 255 254 252 251 249 247 247 246 245 244 243 241 239 239 238 238 238 238 237 237 236 236 235 235 235 234 233 232 231 230 229
305 306 307 309 310 310 311 311 310 309 308 307 307 306 307 308 309 308 307 307 307 306 303 300 298 295 292 289 284 280 276 271 268 265 262 261 259 257 256 255 254 252 251 249 248 247 246 245 243 242 240 239 238 238 238 237 237 237 237 236 236 236 235 235 234 233 232 231 230
304 305 306 307 308 309 309 309 309 308 306 306 305 305 306 308 308 308 307 307 307 306 304 301 299 296 294 291 286 282 279 275 271 267 265 263 260 259 258 257 255 254 252 250 249 248 247 245 244 242 240 239 238 238 237 237 237 237 237 237 237 236 236 235 235 234 233 232 231
303 304 305 306 306 307 308 308 307 306 305 304 304 305 306 307 307 307 308 308 307 305 303 301 300 297 295 292 288 285 281 278 273 270 267 265 263 261 260 258 257 255 253 251 250 249 248 246 244 242 241 239 238 238 237 237 237 237 237 237 237 237 236 236 235 234 234 233 232
303 303 304 305 305 306 307 307 306 306 305 304 304 305 305 306 307 308 308 307 306 304 303 302 300 298 296 294 290 287 283 279 275 272 269 266 264 263 261 260 257 255 254 253 251 250 248 246 245 243 241 239 238 238 237 237 236 237 237 237 237 237 236 236 235 235 234 233 232
301 302 303 304 305 306 306 306 306 305 304 304 304 304 305 305 306 307 307 306 305 304 302 301 300 299 298 295 292 288 283 279 275 273 270 268 266 264 262 260 258 256 255 254 253 251 249 247 245 243 241 240 239 238 237 237 236 236 236 236 236 236 236 236 235 235 234 233 232
300 302 303 304 305 305 306 305 305 304 303 304 304 304 304 305 305 306 305 304 303 303 302 301 300 299 298 295 292 288 283 279 275 272 271 269 267 265 263 261 259 258 257 256 254 252 250 247 245 244 242 241 240 239 238 238 237 236 236 236 236 236 236 236 235 234 234 233 232
301 302 303 304 305 305 304 304 304 303 303 303 303 303 303 304 304 304 303 302 302 302 301 300 300 298 297 294 292 288 283 279 275 272 270 269 268 266 264 261 260 259 258 257 255 253 250 247 246 245 244 243 241 239 239 238 238 237 236 236 236 236 235 235 235 234 233 233 232
303 303 304 304 304 304 303 304 304 303 303 303 302 302 302 303 302 302 301 300 300 300 300 299 298 297 296 293 290 287 283 279 276 272 270 268 267 266 264 262 261 260 259 258 257 255 253 250 248 246 245 244 242 240 239 239 238 238 237 236 236 235 235 234 234 234 233 233 232
304 304 304 304 303 303 303 304 303 302 302 302 301 301 301 300 300 299 299 299 299 299 299 298 298 297 295 292 289 286 283 280 277 273 271 268 266 265 264 263 262 261 261 260 258 257 255 254 252 249 247 245 244 242 240 239 238 237 237 236 236 236 235 235 236 235 234 233 233
304 304 303 303 302 302 302 302 302 301 301 300 300 299 298 298 297 297 297 298 298 297 297 297 298 297 294 291 289 287 284 281 278 275 271 268 266 265 264 263 263 262 262 261 260 258 257 255 254 252 250 248 246 243 240 238 237 237 236 236 236 236 236 236 236 236 235 234 234
304 304 303 302 301 301 301 301 300 300 300 299 298 297 296 295 295 295 296 296 296 296 296 297 296 295 293 291 289 287 284 281 278 275 271 268 266 265 264 264 263 263 263 262 261 259 258 257 255 253 252 250 248 246 243 240 237 236 236 236 237 236 235 235 236 235 235 235 234
304 303 302 301 300 299 299 300 300 299 298 298 296 295 294 293 293 294 295 295 295 296 296 296 295 293 293 292 290 286 283 281 278 275 271 268 266 265 265 265 264 264 264 263 262 261 259 258 256 255 254 252 250 249 246 243 239 236 235 235 235 235 234 234 234 234 233 233 233
304 303 302 300 298 298 298 299 298 298 297 296 295 294 292 291 292 293 294 295 295 296 296 295 294 293 293 292 290 287 284 281 278 275 273 270 268 267 267 266 265 264 264 264 263 262 260 259 257 256 255 253 252 250 249 246 243 239 236 236 235 235 235 234 234 234 232 231 231
305 304 302 299 297 297 297 297 297 297 296 295 294 292 291 290 291 292 294 295 295 295 294 293 293 292 291 291 289 288 285 282 279 277 274 272 269 268 267 266 265 264 264 263 263 261 260 258 257 256 255 254 253 252 250 248 246 242 239 237 236 236 237 236 234 233 231 230 229
305 303 301 298 296 295 295 295 295 295 295 294 293 291 290 290 290 291 293 294 295 294 293 292 291 290 290 290 288 287 285 283 281 278 276 274 271 268 266 265 265 265 265 264 263 261 259 258 256 256 255 255 254 252 251 250 248 245 241 238 237 237 236 235 234 232 231 231 229
304 301 298 296 295 294 294 294 294 294 294 293 292 292 291 290 290 290 292 294 294 294 293 292 291 291 290 290 289 287 285 283 282 280 277 275 272 268 266 265 266 267 266 265 263 261 259 257 256 255 255 254 253 252 251 250 249 247 245 241 238 237 236 235 235 234 232 232 231
302 298 296 294 293 293 292 292 293 294 294 294 294 293 293 292 291 291 292 293 293 292 292 291 291 291 290 289 289 288 286 284 283 282 280 277 273 269 266 266 267 268 268 266 264 262 260 257 256 255 255 254 252 251 250 249 249 248 247 244 241 238 236 235 236 235 233 231 230
299 296 293 292 291 291 291 291 293 294 295 296 296 295 294 293 292 291 292 293 292 291 291 291 290 290 289 289 289 289 288 287 285 283 281 279 275 271 268 267 268 268 268 267 265 263 261 258 256 255 255 253 251 250 249 248 248 248 248 246 243 240 237 235 234 234 233 231 230
296 294 291 290 289 289 290 291 293 295 297 297 297 296 295 293 292 291 291 291 290 290 290 290 290 290 290 291 291 291 291 290 288 286 283 281 277 274 271 269 269 269 269 268 266 263 261 258 256 255 253 252 250 249 248 247 247 247 247 247 245 243 239 235 233 233 233 232 230
294 292 290 289 288 289 291 293 295 297 298 298 298 297 296 294 292 291 291 290 290 289 289 289 289 290 292 293 293 293 293 293 292 289 286 283 281 278 274 271 270 270 270 268 266 263 260 258 256 255 253 251 250 249 248 247 247 247 247 247 247 245 241 236 233 232 233 232 231
293 292 291 289 290 291 293 295 297 298 298 298 298 297 295 294 292 291 291 291 290 289 289 289 290 292 293 295 295 295 295 295 295 293 290 287 285 282 278 274 272 271 271 269 267 264 261 259 256 254 252 250 249 248 248 248 248 248 247 246 246 245 242 238 234 232 232 232 232
294 293 292 292 292 294 296 297 298 298 298 298 297 296 295 294 293 292 292 291 290 290 290 290 291 293 295 296 296 296 297 296 296 295 294 291 289 286 282 278 275 273 272 270 268 264 261 259 256 254 252 250 249 248 247 248 248 249 248 246 245 244 243 241 236 233 232 231 230
Height
782 781 781 781 780 780 779 778 778 778 778 777 777 776 776 775 774 773 773 773 772 771 770 769 768 768 768 768 768 767 766 766 765 765 765 765 764 764 764 764 764 764 764 764 765 765 766 766 766 766 766 766 766 766 766 766 767 767 768 768 768 768 768 769 768 769 769 770 771
781 780 780 779 779 778 778 777 777 776 776 775 774 774 774 773 773 771 771 770 769 768 768 767 766 766 765 765 765 764 764 763 763 763 762 762 762 762 762 762 762 762 762 762 763 763 763 763 764 764 763 763 763 763 763 763 764 765 765 764 765 765 766 766 765 766 767 768 768
779 779 778 778 778 777 777 776 775 774 774 773 773 772 772 771 770 769 768 767 767 766 765 764 763 763 763 762 762 762 761 760 760 760 759 759 759 759 759 759 759 759 759 760 760 760 761 761 761 761 761 760 760 760 760 760 761 762 762 762 762 763 763 763 763 763 765 766 766
778 778 777 777 776 776 775 774 773 773 772 771 771 770 770 769 768 767 766 765 764 763 763 762 761 760 760 760 759 759 758 758 758 757 757 756 756 756 756 757 757 757 757 757 757 758 758 758 759 758 758 758 757 757 757 757 758 759 759 759 760 760 760 760 760 761 762 763 763
777 777 776 775 775 774 773 773 772 771 770 770 769 768 768 767 765 764 763 763 762 761 760 759 758 758 758 757 757 756 756 755 755 754 754 753 753 753 753 754 754 754 754 754 754 755 755 756 756 756 755 755 754 754 754 754 756 756 756 756 757 757 757 757 758 758 759 759 760
776 775 775 774 773 773 772 772 771 770 769 768 768 767 765 764 763 762 761 760 759 758 758 757 757 756 755 755 754 753 753 752 752 751 751 750 750 750 750 750 750 751 751 751 752 752 753 753 754 753 753 752 752 751 751 752 753 753 753 753 753 754 754 754 754 755 756 757 757
775 774 773 773 772 772 771 770 769 768 768 767 766 765 763 762 761 760 759 758 757 756 756 755 754 753 753 752 751 751 750 749 749 748 748 748 747 747 747 747 748 748 748 748 749 749 750 751 751 751 750 749 749 748 748 749 750 750 750 750 750 751 751 751 752 753 753 753 753
774 773 773 772 771 770 770 769 768 767 766 765 764 763 762 760 759 758 757 756 755 754 753 753 752 750 750 749 749 748 747 747 746 745 745 745 744 744 744 744 745 745 745 745 746 747 747 748 748 747 747 747 746 746 746 747 747 747 747 747 747 748 748 748 749 750 750 750 751
773 772 771 771 770 769 768 767 766 766 764 763 762 761 760 759 758 756 755 754 753 752 751 750 748 748 747 746 746 745 744 744 743 743 742 742 742 741 741 742 742 742 742 743 743 743 744 745 744 744 743 743 743 743 743 744 744 744 744 744 745 745 746 746 746 747 747 748 748
772 771 770 769 768 768 767 766 765 764 763 761 760 759 758 757 756 754 753 752 750 749 748 747 746 745 744 743 743 742 741 741 740 740 739 739 739 738 738 738 738 738 739 739 740 741 741 742 741 740 740 740 740 740 741 741 741 741 741 742 742 743 743 743 744 744 745 745 745
770 769 768 768 767 766 765 764 763 762 761 759 758 757 756 754 753 752 751 749 748 747 745 744 743 742 741 740 739 738 738 738 738 737 737 736 736 735 735 735 735 735 735 736 737 738 738 738 738 737 737 737 737 738 738 739 739 738 738 739 739 740 740 740 741 742 742 742 743
769 768 767 766 765 764 763 762 761 760 759 758 756 755 753 752 751 749 748 747 746 744 742 741 741 740 738 737 736 735 735 735 734 734 733 733 733 732 732 732 732 732 732 733 734 735 736 735 735 734 734 734 735 736 736 736 736 736 736 736 737 738 738 738 738 739 739 740 741
767 766 765 764 764 763 762 760 759 758 757 756 754 753 752 750 749 748 746 745 743 741 740 739 738 737 736 734 733 733 732 732 731 731 731 730 729 729 729 729 729 729 729 730 731 732 732 732 731 731 731 732 732 733 733 733 734 734 733 733 734 734 734 734 735 736 737 738 738
766 765 764 763 762 761 760 759 758 757 755 754 753 751 750 748 747 746 744 743 741 739 738 736 735 734 733 732 731 730 730 729 729 728 728 727 727 726 726 726 726 726 727 727 728 728 728 728 728 728 728 729 729 730 730 731 731 731 731 731 731 731 731 732 733 734 735 735 735
764 763 763 762 760 759 758 757 756 755 753 752 751 749 748 746 745 743 742 740 738 737 735 734 733 732 731 730 729 728 727 727 726 726 725 724 724 723 723 723 723 723 723 724 724 725 725 725 725 725 725 725 726 727 727 728 728 728 728 728 728 728 728 729 730 731 732 732 732
763 762 761 760 759 758 757 755 754 753 752 750 748 747 746 744 743 741 740 738 736 735 733 732 730 729 728 728 727 726 725 725 724 723 723 722 721 721 720 720 720 720 720 721 721 721 721 721 722 722 722 723 723 723 724 724 725 725 725 725 725 725 726 727 728 728 728 728 729
761 760 759 758 757 756 755 753 752 751 749 748 746 745 744 742 740 739 738 736 734 733 731 729 728 727 726 725 724 724 723 723 722 721 720 719 718 718 718 717 717 717 717 718 718 718 718 718 718 719 719 720 720 721 721 722 722 722 722 722 722 723 723 724 725 725 725 726 726
759 758 757 756 755 754 753 752 750 749 748 746 744 743 741 740 738 737 735 734 733 731 729 727 726 725 724 723 722 722 721 720 719 718 718 717 716 716 715 715 714 714 715 715 714 714 714 714 715 716 717 717 718 718 718 719 719 719 719 719 719 720 720 721 722 722 723 723 723
757 756 756 754 753 752 751 750 748 747 745 744 742 741 739 738 736 735 733 731 730 729 727 725 724 723 722 721 720 719 719 718 717 716 715 714 714 713 713 712 712 712 712 712 711 711 711 712 712 713 714 714 715 715 716 716 716 716 716 717 717 717 718 718 718 719 720 720 720
755 754 753 753 752 750 749 748 746 745 743 742 740 738 737 735 734 733 731 729 728 727 725 723 722 720 719 718 718 717 716 715 715 714 713 712 712 711 711 710 710 710 709 709 709 708 708 709 709 710 711 711 712 712 713 713 713 713 713 714 714 714 714 715 716 716 717 717 718
753 753 752 751 750 748 747 746 744 743 741 739 738 736 735 733 732 730 728 727 725 724 723 721 720 718 717 716 715 714 713 713 712 711 711 710 710 709 708 708 708 708 707 707 706 706 706 706 707 707 708 708 709 709 709 710 710 711 711 711 711 711 711 712 713 713 714 714 715
752 751 750 749 748 746 745 743 742 740 739 737 735 734 732 731 729 728 726 725 723 722 721 719 718 717 715 714 713 712 711 710 710 709 708 708 707 707 706 706 706 705 705 704 704 703 703 703 704 704 705 705 706 706 706 707 707 708 708 708 708 708 708 709 710 711 711 711 712
750 749 748 747 745 744 743 741 740 738 736 735 733 731 730 728 727 725 724 723 721 720 718 717 716 714 713 712 711 710 709 708 707 706 706 705 705 704 704 704 704 703 702 702 701 701 701 701 701 702 702 702 702 703 703 703 704 704 704 705 705 705 706 706 707 708 708 708 709
748 747 746 744 743 742 740 739 737 735 734 732 730 729 727 726 724 723 721 720 719 718 716 715 714 713 711 710 709 708 707 706 704 704 703 703 702 702 702 701 701 700 700 699 699 699 699 699 699 699 699 699 699 700 700 700 701 701 701 702 702 703 703 703 704 704 704 705 706
746 745 744 742 741 739 738 736 734 733 731 729 728 726 725 723 722 720 719 718 716 715 714 713 711 710 709 708 706 705 704 703 702 701 701 700 700 699 699 699 698 698 697 697 697 697 697 697 697 697 697 697 697 697 697 698 698 698 698 699 699 700 700 700 700 701 701 701 702
744 743 742 740 739 737 735 734 732 730 728 727 725 724 722 721 719 718 717 715 713 713 711 710 709 708 707 705 704 703 702 701 700 699 698 697 697 697 696 696 695 695 694 694 695 695 695 695 696 695 695 694 694 694 695 695 695 695 696 696 697 697 697 697 697 697 698 698 699
742 741 739 738 736 735 733 731 729 728 726 724 723 721 719 718 717 716 714 713 711 710 709 708 707 706 704 703 702 700 699 698 697 697 696 695 694 694 693 693 693 692 692 692 692 693 693 693 694 694 693 693 692 692 692 692 692 692 693 693 693 693 693 693 693 694 695 696 696
740 738 737 735 734 732 730 728 727 725 723 721 720 718 717 716 714 713 712 710 709 708 706 705 704 703 702 701 699 698 697 696 695 694 693 693 692 691 691 690 690 689 689 689 690 690 691 691 691 692 692 691 690 689 689 689 689 689 690 690 690 690 690 690 691 692 692 693 693
738 736 734 733 731 729 727 726 724 722 720 719 718 716 714 713 712 710 709 708 706 705 704 703 702 701 700 698 697 695 694 693 693 692 691 690 689 688 688 688 687 687 687 687 687 688 688 688 688 689 689 689 688 687 686 686 686 686 687 687 687 687 688 688 688 689 690 690 691
735 733 732 730 728 726 725 723 721 719 718 717 715 713 712 711 709 708 707 705 704 703 702 701 699 698 697 696 694 693 692 691 690 689 689 688 687 686 685 685 684 684 684 684 685 685 685 686 686 686 686 686 686 685 684 683 683 683 683 683 683 684 684 685 685 686 687 688 688
733 731 729 728 726 724 722 720 718 717 715 714 713 711 709 708 707 705 704 703 702 700 699 698 697 696 694 693 692 691 690 689 688 687 686 685 684 683 683 682 682 681 681 682 682 683 683 683 683 683 683 683 683 683 682 680 680 680 680 680 680 680 681 682 682 683 683 684 685
730 729 727 725 723 721 719 717 716 714 713 711 710 708 707 706 704 703 702 701 700 698 697 696 695 693 692 691 690 689 688 686 685 684 684 683 682 681 680 679 679 678 678 679 679 680 680 680 680 680 680 680 680 679 679 678 677 677 676 676 676 677 678 678 679 679 680 681 682
728 726 724 723 720 718 716 715 713 712 710 709 708 706 704 703 702 701 699 698 698 696 695 694 693 691 690 688 687 686 685 684 683 682 681 680 679 678 678 677 676 676 676 676 677 677 677 677 677 677 677 677 677 676 676 675 675 674 673 673 673 673 674 675 675 676 677 678 678
726 724 722 720 718 716 714 712 711 709 708 707 705 703 702 701 699 698 697 696 695 694 693 691 690 689 688 686 685 684 683 681 680 679 678 678 677 676 675 674 673 673 673 674 674 674 674 674 674 674 674 674 674 673 673 673 672 671 670 670 670 670 671 671 672 673 673 674 675
723 722 719 717 715 713 711 710 708 707 706 704 703 701 700 699 698 696 695 693 693 691 690 689 688 687 685 684 683 682 680 679 678 677 676 675 674 673 673 671 671 670 671 671 671 671 671 671 671 671 671 671 671 671 670 670 669 668 668 667 667 667 668 668 669 669 670 671 672
721 719 717 715 713 711 709 708 706 705 704 702 701 699 698 696 695 694 693 692 690 689 687 686 685 684 683 681 680 679 678 677 676 674 674 673 672 671 670 668 668 668 668 668 668 668 668 668 668 668 669 669 668 668 667 667 666 666 665 664 664 664 664 665 666 666 667 668 669
719 717 715 713 711 709 707 706 704 703 701 700 698 697 696 694 693 691 690 690 688 686 685 683 683 681 680 679 678 677 676 675 674 673 671 671 670 669 668 666 665 664 665 665 665 665 665 666 666 666 666 666 665 664 664 664 663 663 662 662 661 661 661 662 663 663 664 664 665
717 715 713 711 709 707 705 704 703 701 699 697 696 695 693 692 690 689 688 688 686 684 682 681 680 679 678 677 675 674 673 673 672 671 669 668 668 667 665 663 662 662 662 662 662 663 663 663 663 663 663 663 662 662 661 661 660 660 659 659 659 659 659 659 660 660 661 661 662
714 713 711 709 707 705 703 702 700 699 697 695 693 692 691 690 688 687 686 685 684 682 680 679 678 676 675 675 673 672 671 670 670 669 668 666 665 664 663 662 660 659 659 659 659 659 659 660 660 660 660 660 659 659 659 658 658 657 657 657 657 657 657 657 657 658 658 658 659
712 710 709 707 705 703 702 700 698 697 695 693 692 690 688 687 686 684 683 683 682 680 678 677 675 674 673 673 672 670 668 668 667 667 666 664 663 662 661 659 658 657 656 657 657 657 657 657 657 657 657 657 657 656 656 656 655 654 654 654 654 654 654 654 654 654 655 655 656
710 708 707 705 703 702 700 698 696 694 693 691 690 688 687 685 684 683 681 680 679 678 677 675 673 672 672 671 670 668 667 665 664 664 663 662 661 660 659 658 656 655 654 654 654 654 654 654 654 654 655 654 654 654 654 653 653 652 652 652 652 652 652 652 652 652 652 653 653